EW5980 Weather Reports


time (UTC)temp
C
wind
direction
speed
KPH
gust
KPH
rain 1hr
cm
rain 24hr
cm
rain mn
cm
humidity
%
barometer
mb
20260510120041 17 0.0 0.0 0.00 0.00 0.00 100 1016.7
20260510114541 17 0.0 0.0 0.00 0.00 0.00 100 1016.4
20260510113038 17 0.0 0.0 0.00 0.00 0.00 100 1016.1
20260510111555 17 0.0 0.0 0.00 0.00 0.00 100 1015.7
20260510110043 17 0.0 0.0 0.00 0.00 0.00 100 1015.2
20260510104551 17 0.0 0.0 0.00 0.00 0.00 100 1015.2
20260510103044 17 0.0 0.0 0.00 0.00 0.00 100 1014.9
20260510101542 17 0.0 0.0 0.00 0.00 0.00 100 1014.8
20260510100046 17 0.0 0.0 0.00 0.00 0.00 100 1014.8
20260510094545 17 0.0 0.0 0.00 0.00 0.00 100 1014.7
20260510093042 16 0.0 0.0 0.00 0.00 0.00 100 1014.5
20260510091543 16 0.0 0.0 0.00 0.00 0.00 100 1014.3
20260510090055 16 0.0 0.0 0.00 0.00 0.00 100 1014.0
20260510084541 16 0.0 0.0 0.00 0.00 0.00 100 1014.1
20260510083046 16 0.0 0.0 0.00 0.00 0.00 100 1013.9
20260510081550 17 0.0 0.0 0.00 0.00 0.00 100 1014.1
20260510080044 17 0.0 0.0 0.00 0.00 0.00 100 1013.7
20260510074542 17 0.0 0.0 0.00 0.00 0.00 100 1013.7
20260510073041 17 0.0 0.0 0.00 0.00 0.00 100 1013.7
20260510071538 17 0.0 0.0 0.00 0.00 0.00 100 1013.7
20260510070037 17 0.0 0.0 0.00 0.00 0.00 2 1013.7
20260510064546 17 0.0 0.0 0.00 0.00 0.00 3 1013.7
20260510063042 18 0.0 0.0 0.00 0.00 0.00 4 1013.6
20260510061542 18 0.0 0.0 0.00 0.00 0.00 5 1013.7
20260510060050 18 0.0 0.0 0.00 0.00 0.00 6 1013.7
20260510054540 18 0.0 0.0 0.00 0.00 0.00 7 1013.8
20260510053045 18 0.0 0.0 0.00 0.00 0.00 9 1013.8
20260510051613 19 0.0 0.0 0.00 0.00 0.00 9 1013.7
20260510050045 19 0.0 0.0 0.00 0.00 0.00 9 1013.7
20260510044543 20 0.0 0.0 0.00 0.00 0.00 11 1013.8
20260510043104 20 0.0 0.0 0.00 0.00 0.00 12 1014.0
20260510041544 20 0.0 0.0 0.00 0.00 0.00 12 1014.0
20260510040041 20 0.0 0.0 0.00 0.00 0.00 14 1014.0
20260510034550 20 0.0 0.0 0.00 0.00 0.00 15 1014.2
20260510033048 20 0.0 0.0 0.00 0.00 0.00 16 1014.3
20260510031613 20 0.0 0.0 0.00 0.00 0.00 19 1014.4
20260510030041 21 0.0 0.0 0.00 0.00 0.00 22 1014.0
20260510024545 21 0.0 0.0 0.00 0.00 0.00 22 1014.2
20260510023053 21 0.0 0.0 0.00 0.00 0.00 23 1014.0
20260510021545 21 0.0 0.0 0.00 0.00 0.00 24 1013.7
20260510020043 21 0.0 0.0 0.00 0.00 0.00 26 1013.5
20260510014544 21 0.0 0.0 0.00 0.00 0.00 29 1013.4
20260510013042 21 0.0 0.0 0.00 0.00 0.00 30 1013.2
20260510011554 22 0.0 0.0 0.00 0.00 0.00 32 1013.0
20260510010050 22 0.0 0.0 0.00 0.00 0.00 34 1012.6
20260510004544 22 0.0 0.0 0.00 0.00 0.00 37 1012.2
20260510003045 22 0.0 0.0 0.00 0.00 0.00 41 1012.1
20260510001542 23 0.0 0.0 0.00 0.00 0.00 43 1011.9
20260510000047 23 0.0 0.0 0.00 0.00 0.00 49 1011.8
20260509234541 23 0.0 0.0 0.00 0.00 0.00 50 1011.7
20260509233039 23 0.0 0.0 0.00 0.00 0.00 52 1011.6
20260509231537 23 0.0 0.0 0.00 0.00 0.00 53 1011.4
20260509230045 23 0.0 0.0 0.00 0.00 0.00 54 1011.2
20260509224544 24 0.0 0.0 0.00 0.00 0.00 57 1011.3
20260509223042 24 0.0 0.0 0.00 0.00 0.00 62 1011.1
20260509221541 24 0.0 0.0 0.00 0.00 0.00 67 1010.9
20260509220045 24 0.0 0.0 0.00 0.00 0.00 66 1011.0
20260509214541 25 0.0 0.0 0.00 0.00 0.00 66 1011.1
20260509213100 25 0.0 0.0 0.00 0.00 0.00 64 1011.0
20260509211608 25 0.0 0.0 0.00 0.00 0.00 61 1010.9
20260509210041 25 0.0 0.0 0.00 0.00 0.00 66 1011.0
20260509204556 25 0.0 0.0 0.00 0.00 0.00 67 1010.9
20260509203055 24 0.0 0.0 0.00 0.00 0.00 65 1011.3
20260509201543 24 0.0 0.0 0.00 0.00 0.00 63 1011.4
20260509200043 24 0.0 0.0 0.00 0.00 0.00 62 1011.5
20260509194544 24 0.0 0.0 0.00 0.00 0.00 59 1011.8
20260509193041 23 0.0 0.0 0.00 0.00 0.00 55 1011.9
20260509191540 23 0.0 0.0 0.00 0.00 0.00 46 1012.0
20260509190047 23 0.0 0.0 0.00 0.00 0.00 45 1011.9
20260509184546 23 0.0 0.0 0.00 0.00 0.00 44 1011.7
20260509183043 22 0.0 0.0 0.00 0.00 0.00 31 1011.8
20260509181540 22 0.0 0.0 0.00 0.00 0.00 11 1012.0
20260509180048 21 0.0 0.0 0.00 0.00 0.00 1 1012.2
20260509174550 21 0.0 0.0 0.00 0.00 0.00 100 1012.3
20260509173043 20 0.0 0.0 0.00 0.00 0.00 100 1012.4
20260509171542 20 0.0 0.0 0.00 0.00 0.00 100 1012.5
20260509170041 20 0.0 0.0 0.00 0.00 0.00 100 1013.1
20260509164547 19 0.0 0.0 0.00 0.00 0.00 100 1013.3
20260509163054 19 0.0 0.0 0.00 0.00 0.00 100 1013.3
20260509161542 18 0.0 0.0 0.00 0.00 0.00 100 1013.4
20260509160042 18 0.0 0.0 0.00 0.00 0.00 100 1012.9
20260509154541 18 0.0 0.0 0.00 0.00 0.00 100 1013.0
20260509153050 18 0.0 0.0 0.00 0.00 0.00 100 1013.3
20260509151545 18 0.0 0.0 0.00 0.00 0.00 100 1013.2
20260509150044 18 0.0 0.0 0.00 0.00 0.00 100 1013.0
20260509144543 18 0.0 0.0 0.00 0.00 0.00 100 1012.9
20260509143042 18 0.0 0.0 0.00 0.00 0.00 100 1012.9
20260509141543 18 0.0 0.0 0.00 0.00 0.00 100 1012.5
20260509140050 18 0.0 0.0 0.00 0.00 0.00 100 1012.2
20260509134551 18 0.0 0.0 0.00 0.00 0.00 100 1012.2
20260509133054 18 0.0 0.0 0.00 0.00 0.00 100 1012.0
20260509131546 17 0.0 0.0 0.00 0.00 0.00 100 1011.8
20260509130044 17 0.0 0.0 0.00 0.00 0.00 100 1011.9
20260509124539 17 0.0 0.0 0.00 0.00 0.00 100 1011.7
20260509123047 17 0.0 0.0 0.00 0.00 0.00 100 1011.4
20260509121542 17 0.0 0.0 0.00 0.00 0.00 100 1010.4